Weather History for Port Angeles, WA

Change the Weather History Date:

Thursday, September 5, 2013

  Actual Average Record
Temperature  
Mean Temperature 66 °F -  
Max Temperature 75 °F 68 °F 83 °F (1955)
Min Temperature 57 °F 50 °F 40 °F (1956)
Cooling Degree Days 1    
Growing Degree Days 16 (Base 50)    
Moisture  
Dew Point 57 °F    
Average Humidity 81    
Maximum Humidity 93    
Minimum Humidity 51    
Precipitation  
Precipitation 0.05 in - - ()
Sea Level Pressure  
Sea Level Pressure 30.01 in    
Wind  
Wind Speed 5 mph (SSW)    
Max Wind Speed 10 mph    
Max Gust Speed -    
Visibility 10 miles    
Events Rain    
Averages and records for this station are not official NWS values.
T = Trace of Precipitation, MM = Missing Value Source: NWS Daily Summary

Daily Weather History Graph

Daily Weather History Graph

Search for Another Location

Airport:

Trip Planner

Search our weather history database for the weather conditions in past years. The results will help you decide how hot, cold, wet, or windy it might be!

Date:

Astronomy

Sep. 05, 2013 Rise Set
Actual Time 6:37 AM PDT 7:46 PM PDT
Civil Twilight 6:05 AM PDT 8:18 PM PDT
Nautical Twilight 5:27 AM PDT 8:56 PM PDT
Astronomical Twilight 4:46 AM PDT 9:37 PM PDT
Moon 7:00 AM PDT (9/5) 7:33 PM PDT (9/5)
Length of Visible Light 14h 12m
Length of Day
13h 08m
New Moon, 0% of the Moon is Illuminated
Sep 5
New Moon
Sep 12
First Quarter
Sep 19
Full
Sep 26
Last Quarter
Oct 4
New

Hourly Weather History & Observations

Time (PDT) Temp. Dew Point Humidity Pressure Visibility Wind Dir Wind Speed Gust Speed Precip Events Conditions
12:53 AM 59.0 °F 55.9 °F 90% 30.05 in 10.0 mi SW 5.8 mph - N/A   Clear
1:53 AM 60.1 °F 57.0 °F 90% 30.04 in 10.0 mi WSW 10.4 mph - N/A   Clear
2:53 AM 61.0 °F 55.9 °F 83% 30.02 in 10.0 mi NW 3.5 mph - N/A   Clear
3:53 AM 57.0 °F 54.0 °F 89% 30.02 in 10.0 mi Calm Calm - N/A   Clear
4:53 AM 57.0 °F 55.0 °F 93% 30.03 in 10.0 mi North 3.5 mph - N/A   Scattered Clouds
5:53 AM 59.0 °F 55.9 °F 90% 30.03 in 10.0 mi West 4.6 mph - N/A   Clear
6:53 AM 57.9 °F 55.9 °F 93% 30.04 in 10.0 mi SSW 3.5 mph - N/A   Clear
7:53 AM 59.0 °F 55.9 °F 90% 30.05 in 10.0 mi Calm Calm - 0.00 in Rain Light Rain
8:53 AM 61.0 °F 59.0 °F 93% 30.05 in 10.0 mi Calm Calm - 0.03 in Rain Light Rain
9:53 AM 63.0 °F 60.1 °F 90% 30.05 in 10.0 mi East 3.5 mph - 0.00 in   Mostly Cloudy
10:53 AM 64.0 °F 60.1 °F 87% 30.06 in 10.0 mi East 9.2 mph - 0.01 in Rain Light Rain
11:53 AM 62.1 °F 59.0 °F 90% 30.04 in 10.0 mi NW 3.5 mph - 0.01 in Rain Light Rain
12:53 PM 66.9 °F 61.0 °F 81% 30.03 in 10.0 mi SE 3.5 mph - 0.00 in   Mostly Cloudy
1:53 PM 69.1 °F 60.1 °F 73% 30.02 in 10.0 mi SE 8.1 mph - N/A   Overcast
2:53 PM 72.0 °F 59.0 °F 64% 30.01 in 10.0 mi East 5.8 mph - N/A   Clear
3:53 PM 71.1 °F 55.9 °F 59% 29.99 in 10.0 mi Variable 5.8 mph - N/A   Clear
4:53 PM 75.0 °F 55.9 °F 51% 29.97 in 10.0 mi ESE 4.6 mph - N/A   Clear
5:53 PM 73.0 °F 55.9 °F 55% 29.97 in 10.0 mi ESE 5.8 mph - N/A   Clear
6:53 PM 63.0 °F 55.9 °F 78% 29.95 in 10.0 mi West 5.8 mph - N/A   Clear
7:53 PM 62.1 °F 55.0 °F 78% 29.95 in 10.0 mi South 3.5 mph - N/A   Clear
8:53 PM 60.1 °F 55.0 °F 83% 29.95 in 10.0 mi NW 4.6 mph - N/A   Overcast
9:53 PM 62.1 °F 55.9 °F 80% 29.96 in 10.0 mi West 3.5 mph - N/A   Overcast
10:53 PM 61.0 °F 55.9 °F 83% 29.94 in 10.0 mi Calm Calm - N/A   Mostly Cloudy
11:53 PM 62.1 °F 57.0 °F 84% 29.93 in 10.0 mi Calm Calm - N/A   Mostly Cloudy